EHI
0 0 0 0 0 0 0 0 1 2 3 5 8 11 15 26 36 43 47 53 62 68 68 63 55 50 46 43 41 41 40 41 42 43 39 32 29 28 25 21 16 14 12 12
0 0 0 0 0 0 0 0 1 2 4 7 11 14 19 29 38 43 46 53 61 66 65 60 54 50 47 43 41 39 39 39 39 38 34 30 26 24 23 21 16 13 11 10
0 0 0 0 1 1 0 0 2 4 7 12 18 23 30 39 44 46 49 55 59 62 62 58 54 50 48 45 41 37 35 35 32 30 28 25 22 20 20 19 15 11 9 8
0 0 0 0 1 1 1 3 6 8 12 19 29 36 43 49 52 52 54 56 56 57 58 58 55 51 48 44 40 34 30 28 26 23 22 20 18 17 16 14 12 9 6 5
0 0 0 0 1 1 2 6 12 16 19 27 37 42 46 51 52 51 52 52 51 51 53 56 54 49 43 38 33 28 24 23 22 20 19 17 15 13 11 9 7 6 5 4
0 0 0 0 0 0 1 7 18 25 28 34 40 43 45 46 44 44 45 45 45 45 46 47 46 42 37 31 27 23 21 19 19 18 16 14 12 9 6 5 4 4 4 4
0 0 0 0 0 2 4 10 19 28 33 38 41 45 43 38 35 36 37 37 38 38 38 38 37 34 31 27 23 20 18 17 15 14 12 10 9 7 5 4 3 3 3 2
1 1 1 1 2 5 10 13 16 22 28 33 34 36 34 29 27 29 30 31 33 33 33 33 31 29 27 24 20 17 15 13 11 10 8 6 6 6 5 4 4 3 1 0
3 3 2 2 4 7 11 14 15 16 19 20 19 19 21 20 20 22 25 27 30 31 31 30 27 24 22 19 16 14 11 9 7 6 5 4 4 3 2 3 3 3 1 0
2 2 1 2 4 6 9 13 15 14 13 11 10 11 14 15 15 16 18 20 22 23 23 20 18 16 15 13 11 9 7 4 3 2 2 1 1 0 0 1 2 2 1 1
1 0 0 1 3 4 6 10 12 13 11 11 12 13 13 13 12 11 10 10 10 9 8 7 8 8 7 6 5 4 2 1 1 0 0 0 0 0 0 0 1 1 1 0
0 0 0 1 2 3 4 6 8 9 10 11 13 13 12 11 9 7 5 4 3 1 0 0 1 2 2 1 1 1 0 0 0 0 0 0 0 0 0 0 0 0 0 0
0 0 1 2 2 2 2 2 4 6 7 9 10 9 8 7 5 4 3 2 1 0 0 0 0 0 0 0 0 0 0 0 0 0 0 0 0 0 0 0 0 0 0 0
0 0 1 1 1 1 1 1 2 3 4 6 6 5 4 3 1 1 1 0 0 0 0 0 0 0 0 0 0 0 0 0 0 0 0 0 0 0 0 0 0 0 0 0
0 0 0 0 0 0 0 1 2 2 2 3 2 1 1 0 0 0 0 0 0 0 0 0 0 0 0 0 0 0 0 0 0 0 0 0 0 0 0 0 0 0 0 0
0 0 0 0 0 0 0 1 1 1 2 2 1 0 0 0 0 0 0 0 0 0 0 0 0 0 0 0 0 0 0 0 0 0 0 0 0 0 0 0 0 0 0 0
0 0 0 0 0 0 0 0 0 1 1 1 0 0 0 0 0 0 0 0 0 0 0 0 0 0 0 0 0 0 0 0 0 0 0 0 0 0 0 0 0 0 0 0
0 0 0 0 0 0 0 0 0 0 0 0 0 0 0 0 0 0 0 0 0 0 0 0 0 0 0 0 0 0 0 0 0 0 0 0 0 0 0 0 0 0 0 0
0 0 0 0 0 0 0 0 0 0 0 0 0 0 0 0 0 0 0 0 0 0 0 0 0 0 0 0 0 0 0 0 0 0 0 0 0 0 0 0 0 0 0 0
0 0 0 0 0 0 0 0 0 0 0 0 0 0 0 0 0 0 0 0 0 0 0 0 0 0 0 0 0 0 0 0 0 0 0 0 0 0 0 0 0 0 0 0
1 0 0 0 0 0 0 0 0 0 0 0 0 0 0 0 0 0 0 0 0 0 0 0 0 0 0 0 0 0 0 0 0 0 0 0 0 0 0 0 0 0 0 0
2 1 0 0 0 0 0 0 0 0 0 0 0 0 0 0 0 0 0 0 0 0 0 0 0 0 0 0 0 0 0 0 0 0 0 0 0 0 0 0 0 0 0 0
2 1 0 0 0 0 0 0 0 0 0 0 0 0 0 0 0 0 0 0 0 0 0 0 0 0 0 0 0 0 0 0 0 0 0 0 0 0 0 0 0 0 0 0
1 0 0 0 0 0 0 0 0 0 0 0 0 0 0 0 0 0 0 0 0 0 0 0 0 0 0 0 0 0 0 0 0 0 0 0 0 0 0 0 0 0 0 0
0 0 0 0 0 0 0 0 0 0 0 0 0 0 0 0 0 0 0 0 0 0 0 0 0 0 0 0 0 0 0 0 0 0 0 0 0 0 0 0 0 0 0 0
0 0 0 0 0 0 0 0 0 0 0 0 0 0 0 0 0 0 0 0 0 0 0 0 0 0 0 0 0 0 0 0 0 0 0 0 0 0 0 0 0 0 0 0
0 0 0 0 0 0 0 0 0 0 0 0 0 0 0 0 0 0 0 0 0 0 0 0 0 0 0 0 0 0 0 0 0 0 0 0 0 0 0 0 0 0 0 0
Wind_Speed
16 12 8 7 9 12 14 14 12 8 5 4 4 4 4 5 6 7 9 9 9 8 7 6 6 5 6 6 7 7 7 7 7 6 5 5 5 5 5 4 4 4 3 2
15 14 9 9 11 14 17 16 12 10 8 3 6 5 5 6 7 8 8 9 9 9 8 6 6 6 6 6 6 6 7 7 7 6 6 5 5 5 5 4 3 3 4 3
13 14 13 13 14 16 16 12 11 9 5 3 4 5 5 6 7 8 9 9 9 8 7 6 6 6 6 6 6 6 6 5 6 6 6 5 5 5 5 5 5 5 5 6
12 14 16 10 9 12 11 7 6 4 2 1 6 6 5 5 5 6 7 8 8 8 7 7 7 7 7 7 7 7 6 6 6 6 6 6 6 6 6 6 7 7 8 8
10 13 14 11 8 9 9 7 6 5 4 4 7 7 6 7 8 6 7 9 8 8 8 8 8 9 10 10 9 9 8 7 7 8 8 8 9 8 8 8 8 8 8 8
10 11 11 5 5 7 8 5 7 8 6 2 3 3 4 7 10 10 10 9 8 9 10 11 10 10 11 10 10 10 9 10 10 9 9 10 10 9 8 8 8 8 9 9
11 12 8 5 7 8 6 3 8 9 7 5 2 5 8 10 12 12 12 10 10 11 11 10 10 11 12 11 11 10 10 11 11 10 10 10 9 8 8 8 9 8 9 8
8 10 4 8 6 5 6 8 8 7 6 7 9 11 12 12 12 11 11 11 11 11 12 10 11 12 13 11 10 10 11 11 10 9 9 9 8 7 8 7 8 7 7 7
3 2 4 7 6 7 6 7 7 5 5 7 7 11 13 12 12 11 11 11 11 12 13 11 10 11 13 10 10 10 11 11 10 11 9 8 8 7 5 4 5 5 5 6
4 2 4 6 7 8 8 7 6 3 3 6 8 12 14 12 12 12 11 11 11 13 13 12 11 11 11 10 10 11 11 10 9 9 10 10 8 8 8 7 6 6 6 6
6 5 6 6 8 8 7 6 5 3 4 7 11 14 14 13 12 12 11 11 12 12 12 12 11 11 10 9 9 9 9 9 10 11 11 10 10 9 9 9 8 7 7 7
3 4 5 6 8 8 5 3 4 6 7 8 12 15 15 14 12 12 12 11 11 12 12 12 11 11 9 8 7 7 7 7 7 8 8 8 9 10 15 11 13 15 12 9
4 6 5 5 6 6 5 5 6 9 10 11 12 15 16 15 13 12 12 12 12 12 12 12 11 10 9 7 7 7 7 6 6 6 7 7 7 8 7 7 9 10 9 9
3 3 3 4 5 7 8 9 11 12 12 13 14 15 15 15 14 14 13 12 12 12 12 11 11 10 8 7 7 6 7 7 5 4 4 5 5 6 6 7 6 4 3 2
4 4 5 6 8 9 9 11 14 14 15 14 14 14 15 15 14 13 11 11 11 11 11 11 10 8 6 6 7 7 6 5 4 3 4 4 3 4 4 5 5 5 4 2
6 8 9 10 11 11 12 13 14 14 15 15 14 15 15 14 13 11 10 10 10 10 9 9 8 7 6 5 5 6 6 6 4 3 5 4 4 4 4 4 5 5 5 4
9 10 10 11 11 12 12 12 13 14 14 15 15 14 13 13 12 11 10 10 9 9 8 7 6 5 5 4 3 4 5 4 2 4 6 5 5 5 5 5 5 5 6 5
10 11 11 12 12 13 14 14 14 14 14 14 14 13 12 11 11 10 9 10 9 9 7 6 6 5 5 5 4 3 3 4 4 6 6 5 4 4 5 5 5 5 5 4
13 14 14 14 14 14 14 14 13 13 12 12 12 12 11 10 9 9 9 9 9 8 7 6 5 4 5 6 5 1 3 5 6 5 5 3 3 5 5 5 5 5 5 4
14 15 15 15 15 14 13 13 12 11 10 11 11 10 10 9 8 9 8 7 6 5 6 5 3 4 4 5 5 2 4 5 5 5 4 3 4 4 4 5 5 5 5 5
14 15 15 15 14 14 12 12 11 11 10 10 10 9 9 8 8 8 7 7 6 5 5 4 3 4 5 4 3 3 5 4 4 4 4 4 5 5 5 5 5 5 5 5
13 13 14 14 13 12 11 10 10 10 10 9 9 9 8 7 7 7 7 6 6 4 2 4 5 6 6 5 1 4 5 4 4 4 4 4 5 4 4 4 4 4 5 4
11 12 12 12 11 11 10 9 9 9 9 9 8 7 6 5 5 6 6 5 5 4 3 6 6 6 7 3 3 4 4 4 4 4 4 4 4 4 3 4 4 4 4 4
11 11 10 10 10 10 9 8 8 7 8 8 8 7 6 5 5 6 6 7 7 6 6 6 5 5 4 1 3 4 4 4 3 3 4 4 3 3 4 4 3 3 3 4
10 10 9 8 8 8 8 8 9 8 7 6 7 6 5 5 5 6 6 8 8 6 6 5 2 2 2 2 4 4 4 4 4 3 3 4 3 4 4 4 3 3 3 3
8 8 7 7 6 5 5 5 5 5 5 5 5 5 5 5 7 6 5 7 7 6 5 4 4 2 1 3 3 4 4 4 3 2 3 3 3 4 3 3 3 3 3 3
8 8 6 6 6 5 5 5 5 5 5 5 5 4 5 5 5 5 5 5 5 5 4 4 3 3 3 3 4 3 2 2 2 3 3 3 2 2 2 2 2 2 3 2
Wind_Direction
267 267 252 254 272 278 272 268 272 274 259 190 174 179 157 149 147 141 138 138 133 131 126 126 130 136 138 150 156 160 159 166 171 169 161 154 155 152 157 166 173 161 150 143
271 269 263 258 249 255 261 263 269 272 273 200 166 170 156 158 158 155 146 138 133 129 127 127 129 132 132 135 142 149 156 163 157 155 154 153 153 155 150 144 135 122 116 101
268 271 269 254 250 253 254 261 272 273 277 166 159 145 148 159 163 156 141 134 128 122 121 122 122 123 125 123 124 129 133 138 140 142 139 139 141 128 123 121 110 97 87 82
266 270 265 273 290 282 275 277 305 308 322 137 132 122 104 100 112 118 125 123 119 120 120 122 120 118 114 111 110 109 104 105 112 113 114 110 102 100 94 89 87 82 78 75
260 260 262 268 283 298 293 300 345 344 353 22 108 121 101 92 98 108 106 108 110 114 116 111 109 107 103 98 95 92 88 85 92 103 105 102 97 91 88 87 84 82 80 76
251 261 266 292 335 329 301 270 15 11 4 63 155 177 119 106 106 103 97 95 104 107 105 98 96 99 98 94 89 86 84 82 81 86 93 95 95 95 94 94 93 89 81 74
248 256 261 328 330 310 288 360 13 11 9 15 41 70 101 99 96 93 93 95 96 97 97 96 97 95 92 88 87 86 86 86 84 85 88 89 90 96 98 96 94 93 91 84
244 249 248 16 2 2 6 354 356 1 22 54 80 97 103 102 98 95 96 96 95 94 94 93 96 97 94 91 92 92 90 88 87 86 88 91 91 91 96 105 108 105 102 98
293 308 22 12 3 356 350 339 338 359 49 91 99 111 109 107 104 98 94 92 92 94 94 90 88 94 97 96 96 94 91 87 85 82 78 82 88 91 94 95 98 101 98 93
305 303 351 348 350 350 347 339 336 357 95 110 119 122 117 112 106 103 98 96 95 93 93 92 90 91 92 93 94 95 94 92 90 85 75 61 57 56 52 47 58 68 64 70
276 307 323 343 354 346 345 351 358 50 99 115 123 121 119 114 109 104 100 98 96 96 95 93 90 90 91 94 96 99 99 97 92 85 83 74 65 54 62 53 54 65 60 56
318 350 333 333 342 345 355 28 63 89 92 104 119 118 116 110 108 105 103 102 101 99 98 96 92 88 86 88 91 98 105 108 109 108 106 104 99 80 54 63 66 72 73 79
17 358 353 348 9 26 40 60 83 96 102 107 112 115 114 111 108 104 100 99 98 98 96 93 89 85 80 75 73 75 80 82 96 107 117 122 123 120 111 80 63 66 74 80
35 19 31 39 54 62 80 89 92 94 93 99 106 108 108 106 103 99 98 98 98 97 94 91 87 83 79 74 68 68 77 76 78 89 96 99 110 122 130 137 133 120 112 122
54 68 86 87 83 80 87 93 95 95 97 99 102 104 104 102 99 97 98 98 96 92 90 88 86 81 77 78 75 67 67 64 57 71 86 90 96 100 97 99 109 120 129 131
94 96 98 96 94 96 99 100 100 102 103 103 101 100 100 101 101 103 102 100 97 92 88 87 85 82 79 80 85 88 78 59 39 55 77 76 70 74 77 78 85 90 86 60
116 115 116 110 105 103 102 101 103 105 106 106 107 108 109 108 106 102 98 96 93 91 90 89 89 84 76 63 57 101 104 92 52 53 59 51 56 62 63 58 60 69 80 69
120 117 119 119 117 113 109 108 108 110 112 114 115 114 112 111 111 110 110 111 107 103 99 92 82 78 71 47 28 63 96 97 74 69 68 49 39 59 65 64 61 66 91 102
120 117 116 113 113 110 110 111 113 115 117 118 118 116 114 112 113 114 115 113 109 102 92 85 75 84 78 50 6 42 81 91 89 83 86 87 60 58 57 56 54 52 49 48
117 117 117 116 116 117 119 121 122 121 120 120 119 118 118 121 121 117 108 99 93 98 105 98 100 87 81 53 350 48 65 73 83 88 82 74 70 70 58 53 53 50 46 39
118 120 120 120 120 121 123 125 125 123 123 122 121 119 118 117 118 118 116 107 98 93 101 102 81 72 56 15 318 62 76 71 75 71 66 67 64 62 57 48 45 44 43 35
119 122 121 119 120 119 121 123 123 123 123 126 125 121 121 122 118 109 103 105 111 97 113 103 81 60 29 340 14 70 74 76 79 80 74 70 68 61 56 51 52 52 44 31
113 115 116 118 121 123 125 126 127 127 127 125 123 124 121 115 118 117 113 111 113 98 80 81 79 59 8 331 59 71 72 71 70 75 77 74 74 69 58 51 56 57 49 26
105 107 110 113 115 115 115 116 116 118 122 123 124 123 121 116 107 105 106 103 96 103 95 94 80 46 336 329 74 75 71 68 68 66 74 76 76 73 67 56 50 49 47 33
110 112 113 118 119 118 122 125 123 125 128 121 120 119 113 110 109 108 110 115 123 120 118 118 100 340 306 71 78 81 76 60 51 38 71 69 61 69 68 62 50 43 43 29
118 120 119 112 107 115 121 122 124 124 118 114 112 111 105 104 110 116 125 135 132 130 130 141 159 198 164 101 97 105 117 131 135 115 73 69 68 62 59 48 38 26 33 36
117 113 110 109 109 106 105 102 101 99 99 107 111 109 109 113 119 124 130 136 144 152 149 160 162 157 127 113 108 107 105 105 103 104 104 91 76 71 69 50 29 23 10 20